QPF
0.00 0.00 0.00 0.00 0.00 0.01 0.00 0.00 0.00 0.00 0.00 0.00 0.00 0.00 0.00 0.00 0.00 0.00 0.00 0.00 0.00 0.00 0.00 0.00 0.00 0.00 0.00 0.00 0.00 0.00 0.00 0.00 0.00 0.00 0.00 0.00 0.00 0.00 0.00 0.00 0.00 0.00 0.00 0.00 0.00
0.00 0.00 0.00 0.00 0.00 0.00 0.00 0.00 0.00 0.00 0.00 0.00 0.00 0.00 0.00 0.00 0.00 0.00 0.00 0.00 0.00 0.00 0.00 0.00 0.00 0.00 0.00 0.00 0.00 0.00 0.00 0.00 0.00 0.00 0.00 0.00 0.00 0.00 0.00 0.00 0.00 0.00 0.00 0.00 0.00
0.00 0.00 0.00 0.00 0.00 0.00 0.00 0.00 0.00 0.00 0.00 0.00 0.00 0.00 0.00 0.00 0.00 0.00 0.00 0.00 0.00 0.00 0.00 0.00 0.00 0.00 0.00 0.00 0.00 0.00 0.00 0.00 0.00 0.00 0.00 0.00 0.00 0.00 0.00 0.00 0.00 0.00 0.00 0.00 0.00
0.00 0.00 0.00 0.00 0.00 0.00 0.00 0.00 0.00 0.00 0.00 0.00 0.00 0.00 0.00 0.00 0.00 0.00 0.00 0.00 0.00 0.00 0.00 0.00 0.00 0.00 0.00 0.00 0.00 0.00 0.00 0.00 0.00 0.00 0.00 0.00 0.00 0.00 0.00 0.00 0.00 0.00 0.00 0.00 0.00
0.00 0.00 0.00 0.00 0.00 0.00 0.00 0.00 0.00 0.00 0.00 0.00 0.00 0.00 0.00 0.00 0.00 0.00 0.00 0.00 0.00 0.00 0.00 0.00 0.00 0.00 0.00 0.00 0.00 0.00 0.00 0.00 0.00 0.00 0.00 0.00 0.00 0.00 0.00 0.00 0.00 0.00 0.00 0.00 0.00
0.00 0.00 0.00 0.00 0.00 0.00 0.00 0.00 0.00 0.00 0.00 0.00 0.00 0.00 0.00 0.00 0.00 0.00 0.00 0.00 0.00 0.00 0.00 0.00 0.00 0.00 0.00 0.00 0.00 0.00 0.00 0.00 0.00 0.00 0.00 0.00 0.00 0.00 0.00 0.00 0.00 0.00 0.00 0.00 0.00
0.00 0.00 0.00 0.00 0.00 0.00 0.00 0.00 0.00 0.00 0.00 0.00 0.00 0.00 0.00 0.00 0.00 0.00 0.00 0.00 0.00 0.00 0.00 0.00 0.00 0.00 0.00 0.00 0.00 0.00 0.00 0.00 0.00 0.00 0.00 0.00 0.00 0.00 0.00 0.00 0.00 0.00 0.00 0.00 0.00
0.00 0.00 0.00 0.00 0.00 0.00 0.00 0.00 0.00 0.00 0.00 0.00 0.00 0.00 0.00 0.00 0.00 0.00 0.00 0.00 0.00 0.00 0.00 0.00 0.00 0.00 0.00 0.00 0.00 0.00 0.00 0.00 0.00 0.00 0.00 0.00 0.00 0.00 0.00 0.00 0.00 0.00 0.00 0.00 0.00
0.00 0.00 0.00 0.00 0.00 0.00 0.00 0.00 0.00 0.00 0.00 0.00 0.00 0.00 0.00 0.00 0.00 0.00 0.00 0.00 0.00 0.00 0.00 0.00 0.00 0.00 0.00 0.00 0.00 0.00 0.00 0.00 0.00 0.00 0.00 0.00 0.00 0.00 0.00 0.00 0.00 0.00 0.00 0.00 0.00
0.00 0.00 0.00 0.00 0.00 0.00 0.00 0.00 0.00 0.00 0.00 0.00 0.00 0.00 0.00 0.00 0.00 0.00 0.00 0.00 0.00 0.00 0.00 0.00 0.00 0.00 0.00 0.00 0.00 0.00 0.00 0.00 0.00 0.00 0.00 0.00 0.00 0.00 0.00 0.00 0.00 0.00 0.00 0.00 0.00
0.00 0.00 0.00 0.00 0.00 0.00 0.00 0.00 0.00 0.00 0.00 0.00 0.00 0.00 0.00 0.00 0.00 0.00 0.00 0.00 0.00 0.00 0.00 0.00 0.00 0.00 0.00 0.00 0.00 0.00 0.00 0.00 0.00 0.00 0.00 0.00 0.00 0.00 0.00 0.00 0.00 0.00 0.00 0.00 0.00
0.00 0.00 0.00 0.00 0.00 0.00 0.00 0.00 0.00 0.00 0.00 0.00 0.00 0.00 0.00 0.00 0.00 0.00 0.00 0.00 0.00 0.00 0.00 0.00 0.00 0.00 0.00 0.00 0.00 0.00 0.00 0.00 0.00 0.00 0.00 0.00 0.00 0.00 0.00 0.00 0.00 0.00 0.00 0.00 0.00
0.00 0.00 0.00 0.00 0.00 0.00 0.00 0.00 0.00 0.00 0.00 0.00 0.00 0.00 0.00 0.00 0.00 0.00 0.00 0.00 0.00 0.00 0.00 0.00 0.00 0.00 0.00 0.00 0.00 0.00 0.00 0.01 0.01 0.00 0.00 0.00 0.00 0.00 0.00 0.00 0.00 0.00 0.00 0.00 0.00
0.00 0.00 0.00 0.00 0.00 0.00 0.00 0.00 0.00 0.00 0.00 0.00 0.00 0.00 0.00 0.00 0.00 0.00 0.00 0.00 0.00 0.00 0.00 0.00 0.00 0.00 0.00 0.00 0.00 0.00 0.00 0.00 0.00 0.00 0.00 0.00 0.00 0.00 0.00 0.00 0.00 0.00 0.00 0.00 0.00
0.00 0.00 0.00 0.00 0.00 0.00 0.00 0.00 0.00 0.00 0.00 0.00 0.00 0.00 0.00 0.00 0.00 0.00 0.00 0.00 0.00 0.00 0.00 0.00 0.00 0.00 0.00 0.00 0.01 0.00 0.00 0.00 0.00 0.00 0.00 0.00 0.00 0.00 0.00 0.00 0.00 0.00 0.00 0.00 0.00
0.00 0.00 0.00 0.00 0.00 0.00 0.00 0.00 0.00 0.00 0.00 0.00 0.00 0.00 0.00 0.00 0.00 0.00 0.00 0.00 0.00 0.00 0.00 0.00 0.00 0.00 0.00 0.00 0.00 0.00 0.00 0.00 0.00 0.00 0.00 0.00 0.00 0.00 0.00 0.00 0.00 0.00 0.00 0.00 0.00
0.00 0.00 0.00 0.00 0.00 0.00 0.00 0.00 0.00 0.00 0.00 0.00 0.00 0.00 0.00 0.00 0.00 0.00 0.00 0.00 0.00 0.00 0.00 0.00 0.00 0.00 0.00 0.00 0.00 0.00 0.00 0.00 0.00 0.00 0.00 0.00 0.00 0.00 0.00 0.00 0.00 0.00 0.00 0.00 0.00
0.00 0.00 0.00 0.00 0.00 0.00 0.00 0.00 0.00 0.00 0.00 0.00 0.00 0.00 0.00 0.00 0.00 0.00 0.00 0.00 0.00 0.00 0.00 0.00 0.00 0.00 0.00 0.00 0.00 0.00 0.00 0.00 0.00 0.00 0.00 0.00 0.00 0.00 0.00 0.00 0.00 0.00 0.00 0.00 0.00
0.00 0.00 0.00 0.00 0.00 0.00 0.00 0.00 0.00 0.00 0.00 0.00 0.00 0.00 0.00 0.00 0.00 0.00 0.00 0.00 0.00 0.00 0.00 0.00 0.00 0.00 0.00 0.00 0.00 0.00 0.00 0.00 0.00 0.00 0.00 0.00 0.00 0.00 0.00 0.00 0.00 0.00 0.00 0.00 0.00
0.00 0.00 0.00 0.00 0.00 0.00 0.00 0.00 0.00 0.00 0.00 0.00 0.00 0.00 0.00 0.00 0.00 0.00 0.00 0.00 0.00 0.00 0.00 0.00 0.00 0.00 0.00 0.00 0.00 0.00 0.00 0.00 0.00 0.00 0.00 0.00 0.00 0.00 0.00 0.00 0.00 0.00 0.00 0.00 0.00
0.00 0.00 0.00 0.00 0.00 0.00 0.00 0.00 0.00 0.00 0.00 0.00 0.00 0.00 0.00 0.00 0.00 0.00 0.00 0.00 0.00 0.00 0.00 0.00 0.00 0.00 0.00 0.00 0.00 0.00 0.00 0.00 0.01 0.00 0.00 0.00 0.00 0.00 0.00 0.00 0.00 0.00 0.00 0.00 0.00
0.00 0.00 0.00 0.00 0.00 0.00 0.00 0.00 0.00 0.00 0.00 0.00 0.00 0.00 0.00 0.00 0.00 0.00 0.00 0.00 0.00 0.00 0.00 0.00 0.00 0.00 0.00 0.00 0.00 0.00 0.00 0.00 0.00 0.00 0.00 0.00 0.00 0.00 0.00 0.00 0.00 0.00 0.00 0.00 0.00
0.00 0.00 0.00 0.00 0.00 0.00 0.00 0.00 0.00 0.00 0.00 0.00 0.00 0.00 0.00 0.00 0.00 0.00 0.00 0.00 0.00 0.00 0.00 0.00 0.00 0.00 0.00 0.00 0.00 0.00 0.00 0.00 0.00 0.00 0.00 0.00 0.00 0.00 0.00 0.00 0.00 0.00 0.00 0.00 0.00
0.00 0.00 0.00 0.00 0.00 0.00 0.00 0.00 0.00 0.00 0.00 0.00 0.00 0.00 0.00 0.00 0.00 0.00 0.00 0.00 0.00 0.00 0.00 0.00 0.00 0.00 0.00 0.00 0.00 0.00 0.00 0.00 0.00 0.00 0.00 0.00 0.00 0.00 0.00 0.00 0.00 0.00 0.00 0.00 0.00
0.00 0.00 0.00 0.00 0.00 0.00 0.00 0.00 0.00 0.00 0.00 0.00 0.00 0.00 0.00 0.00 0.00 0.00 0.00 0.00 0.00 0.00 0.00 0.00 0.00 0.00 0.00 0.00 0.00 0.00 0.00 0.00 0.00 0.00 0.00 0.00 0.00 0.00 0.00 0.00 0.00 0.00 0.00 0.00 0.00
0.00 0.00 0.00 0.00 0.00 0.00 0.00 0.00 0.00 0.00 0.00 0.00 0.00 0.00 0.00 0.00 0.00 0.00 0.00 0.00 0.00 0.00 0.00 0.00 0.00 0.00 0.00 0.00 0.00 0.00 0.00 0.00 0.00 0.00 0.00 0.00 0.00 0.00 0.00 0.00 0.00 0.00 0.00 0.00 0.00
0.00 0.00 0.00 0.00 0.00 0.00 0.00 0.00 0.00 0.00 0.00 0.00 0.00 0.00 0.00 0.00 0.00 0.00 0.00 0.00 0.00 0.00 0.00 0.00 0.00 0.00 0.00 0.00 0.00 0.00 0.00 0.00 0.00 0.00 0.00 0.00 0.00 0.00 0.00 0.00 0.00 0.00 0.00 0.00 0.00
MSLP
1025.01 1024.64 1024.18 1023.76 1023.34 1022.91 1022.38 1021.85 1021.40 1020.97 1020.50 1020.11 1019.69 1019.42 1019.19 1019.05 1018.86 1018.78 1018.45 1018.23 1018.30 1018.11 1017.88 1017.82 1017.84 1017.79 1017.79 1018.07 1018.29 1018.65 1019.56 1019.56 1018.61 1017.51 1016.11 1015.65 1015.49 1014.97 1014.45 1014.34 1014.31 1013.86 1013.85 1013.28 1012.92
1025.14 1024.79 1024.39 1023.91 1023.28 1022.75 1022.23 1021.68 1021.15 1020.69 1020.26 1019.77 1019.37 1019.08 1018.90 1018.86 1018.94 1018.54 1018.27 1018.23 1018.30 1018.18 1018.33 1018.45 1018.42 1018.31 1018.39 1018.43 1018.56 1018.93 1019.51 1018.74 1017.95 1017.43 1016.25 1015.87 1015.84 1015.35 1015.09 1014.67 1014.65 1014.36 1013.90 1013.45 1013.22
1025.25 1024.82 1024.35 1023.85 1023.31 1022.73 1022.15 1021.64 1021.08 1020.55 1020.00 1019.55 1019.20 1018.96 1018.90 1018.98 1019.05 1018.61 1018.27 1018.42 1018.40 1018.38 1018.46 1018.57 1018.63 1018.70 1018.85 1018.72 1018.54 1018.66 1018.72 1018.37 1017.96 1017.54 1016.90 1015.84 1015.75 1015.70 1015.19 1013.98 1014.77 1014.39 1013.71 1013.46 1013.13
1025.26 1024.83 1024.34 1023.77 1023.19 1022.65 1022.06 1021.40 1020.79 1020.27 1019.76 1019.37 1019.08 1018.87 1018.86 1019.10 1019.37 1018.53 1018.43 1018.58 1018.55 1018.59 1018.68 1018.86 1019.01 1019.30 1019.50 1019.36 1018.82 1018.92 1018.50 1018.31 1018.06 1017.83 1017.42 1016.20 1015.95 1015.60 1015.65 1014.34 1014.48 1014.02 1013.26 1012.79 1012.53
1025.26 1024.80 1024.26 1023.64 1022.92 1022.27 1021.71 1021.10 1020.46 1019.81 1019.38 1019.16 1018.93 1018.85 1018.90 1019.05 1018.92 1018.66 1018.79 1018.86 1018.85 1018.82 1019.03 1019.17 1019.32 1019.53 1019.67 1019.57 1019.53 1019.17 1018.59 1018.60 1018.29 1018.08 1017.41 1015.98 1016.00 1015.50 1015.02 1014.51 1013.74 1013.28 1012.82 1012.44 1011.97
1025.43 1024.97 1024.41 1023.78 1023.05 1022.30 1021.56 1020.87 1020.22 1019.59 1019.06 1019.06 1018.90 1018.89 1019.02 1019.11 1018.79 1018.76 1018.94 1018.96 1018.98 1019.04 1019.32 1019.44 1019.70 1019.75 1019.91 1019.96 1019.91 1019.04 1018.99 1018.75 1018.40 1017.83 1017.34 1016.24 1015.48 1015.71 1014.67 1013.75 1013.09 1012.66 1012.12 1011.59 1011.36
1025.61 1025.12 1024.48 1023.75 1022.90 1022.08 1021.26 1020.49 1019.75 1019.20 1018.89 1018.96 1018.91 1019.04 1019.20 1019.23 1018.83 1018.92 1018.87 1018.89 1018.89 1019.04 1019.27 1019.37 1019.60 1019.95 1020.12 1020.09 1019.64 1019.31 1018.73 1018.60 1018.10 1017.75 1017.24 1016.45 1014.15 1015.49 1014.41 1013.39 1012.76 1012.27 1011.69 1011.04 1010.74
1025.58 1025.06 1024.37 1023.60 1022.74 1021.81 1020.83 1019.98 1019.36 1018.63 1018.79 1018.93 1018.90 1019.09 1019.21 1018.88 1018.87 1018.95 1018.85 1018.89 1018.93 1019.01 1019.16 1019.25 1019.52 1019.96 1020.30 1020.21 1020.04 1019.95 1019.33 1018.82 1017.95 1017.66 1017.03 1017.09 1013.51 1014.65 1014.16 1013.24 1012.36 1011.75 1011.25 1010.66 1010.15
1025.64 1025.00 1024.24 1023.45 1022.54 1021.55 1020.42 1019.39 1019.08 1018.73 1018.88 1018.91 1019.10 1019.10 1019.17 1018.81 1018.99 1019.02 1019.04 1019.09 1019.03 1019.09 1019.08 1019.19 1019.61 1020.20 1020.55 1020.87 1020.94 1020.50 1019.91 1018.93 1017.58 1017.49 1017.04 1017.03 1014.94 1013.85 1013.23 1012.70 1011.90 1011.49 1011.05 1010.49 1009.84
1025.59 1025.00 1024.20 1023.37 1022.60 1021.53 1020.17 1019.19 1019.08 1019.02 1019.09 1018.96 1019.37 1019.85 1019.59 1019.79 1019.63 1019.35 1019.02 1019.07 1019.23 1019.32 1019.36 1019.56 1020.20 1020.65 1021.17 1021.56 1021.47 1020.50 1020.05 1019.21 1018.17 1016.97 1016.67 1016.37 1015.05 1013.81 1012.54 1011.97 1011.54 1011.10 1010.74 1010.28 1009.88
1025.52 1024.91 1024.20 1023.36 1022.62 1021.68 1020.92 1020.07 1020.78 1020.53 1020.94 1021.47 1021.68 1021.28 1020.56 1020.11 1019.62 1019.33 1019.11 1019.22 1019.46 1020.05 1020.34 1020.48 1020.92 1020.96 1020.90 1021.17 1021.17 1020.82 1020.20 1019.37 1018.35 1017.60 1017.29 1016.48 1015.20 1013.38 1012.09 1011.63 1010.84 1010.22 1010.39 1010.01 1010.08
1025.50 1024.77 1024.09 1023.27 1022.57 1022.08 1022.13 1022.99 1024.17 1024.38 1023.31 1021.84 1021.50 1021.25 1020.66 1020.43 1020.12 1019.40 1019.33 1019.75 1019.95 1020.44 1020.70 1021.29 1020.79 1020.42 1020.61 1020.68 1020.78 1020.52 1019.93 1019.30 1018.34 1017.77 1017.65 1016.49 1015.24 1013.16 1012.38 1011.24 1010.06 1009.73 1010.56 1010.86 1011.16
1025.45 1024.77 1023.94 1023.02 1022.41 1022.79 1023.38 1024.09 1024.26 1024.29 1024.20 1021.86 1021.07 1020.77 1020.58 1020.60 1020.16 1019.56 1019.56 1019.92 1020.41 1021.01 1021.48 1022.00 1020.50 1020.59 1020.82 1020.72 1020.27 1020.26 1019.90 1019.25 1019.04 1018.02 1017.76 1017.21 1015.53 1013.29 1012.04 1011.51 1010.44 1010.29 1011.45 1011.73 1011.80
1025.44 1024.83 1024.21 1023.07 1022.96 1023.50 1023.84 1024.05 1023.97 1024.17 1024.06 1021.96 1020.94 1020.67 1020.58 1020.53 1020.47 1019.94 1019.92 1020.63 1021.11 1021.43 1021.61 1021.60 1021.03 1020.94 1020.80 1020.91 1020.69 1020.03 1019.94 1019.66 1019.63 1019.48 1018.67 1018.21 1017.23 1014.39 1012.81 1012.28 1012.67 1012.49 1012.35 1012.51 1012.61
1025.50 1024.93 1024.28 1023.62 1024.21 1024.10 1024.36 1024.05 1023.93 1024.23 1023.62 1021.60 1020.82 1020.57 1020.59 1021.25 1021.00 1020.84 1020.71 1020.85 1021.61 1022.22 1022.90 1022.33 1021.52 1021.22 1021.23 1020.96 1020.87 1020.65 1020.53 1020.45 1020.30 1020.46 1020.50 1018.79 1018.63 1015.36 1013.77 1013.49 1013.58 1013.41 1013.12 1013.07 1012.93
1025.52 1024.90 1024.40 1024.27 1024.39 1024.27 1024.15 1023.97 1024.13 1024.27 1022.56 1021.41 1021.05 1021.23 1021.66 1021.37 1021.71 1021.88 1021.79 1021.99 1022.42 1022.83 1023.24 1023.11 1021.81 1021.59 1021.36 1021.51 1021.58 1021.39 1021.18 1021.10 1021.43 1022.22 1022.66 1020.12 1019.23 1016.34 1014.89 1014.09 1013.55 1013.56 1013.70 1013.32 1012.96
1025.20 1024.69 1024.44 1024.37 1024.57 1024.00 1023.93 1024.19 1024.61 1023.81 1022.69 1022.82 1022.62 1022.65 1022.90 1022.93 1023.09 1023.74 1023.95 1024.47 1025.34 1025.43 1025.19 1024.62 1022.99 1022.11 1021.94 1022.10 1022.43 1022.60 1022.75 1023.16 1023.38 1023.80 1022.96 1020.23 1018.97 1016.47 1014.91 1014.32 1014.14 1014.21 1013.79 1013.47 1013.36
1025.06 1024.53 1024.62 1024.53 1024.41 1024.04 1023.94 1024.40 1024.97 1024.60 1024.11 1023.77 1023.74 1023.79 1024.22 1024.72 1025.03 1025.38 1025.92 1026.67 1027.03 1027.61 1027.33 1026.52 1024.39 1023.46 1023.03 1023.40 1023.17 1023.03 1023.82 1024.23 1024.09 1024.45 1022.96 1020.59 1018.84 1016.16 1014.90 1014.46 1014.58 1014.48 1014.06 1013.69 1013.57
1025.18 1025.09 1024.80 1024.44 1024.16 1024.02 1024.50 1025.02 1025.00 1024.92 1024.94 1025.00 1024.89 1025.21 1025.64 1026.01 1026.63 1027.12 1027.22 1027.43 1027.49 1027.95 1029.20 1028.19 1026.17 1024.50 1023.62 1023.45 1023.49 1023.56 1024.18 1023.82 1024.07 1024.63 1023.98 1021.66 1018.86 1016.40 1015.29 1015.00 1015.02 1014.61 1014.14 1013.91 1013.61
1025.65 1025.77 1025.14 1024.49 1024.37 1024.42 1025.24 1025.48 1024.96 1024.69 1024.82 1025.52 1026.58 1026.92 1027.51 1027.49 1028.41 1028.42 1028.25 1027.37 1027.63 1027.82 1028.02 1028.54 1026.83 1024.76 1024.00 1024.06 1023.63 1024.14 1024.22 1024.27 1024.70 1024.88 1024.29 1022.36 1020.39 1018.36 1016.96 1016.37 1015.51 1014.82 1014.49 1014.03 1013.70
1025.86 1025.97 1024.95 1024.68 1024.67 1025.19 1025.97 1025.84 1025.07 1024.64 1025.23 1026.25 1026.96 1027.52 1028.13 1028.54 1028.66 1028.66 1027.90 1026.85 1026.70 1027.34 1027.87 1028.92 1029.28 1026.51 1025.64 1025.00 1025.07 1024.88 1025.21 1025.13 1025.08 1025.50 1025.28 1024.26 1021.24 1018.81 1018.19 1017.36 1016.32 1015.28 1014.48 1014.10 1013.77
1026.08 1026.29 1024.97 1025.02 1026.04 1026.31 1026.56 1025.48 1025.04 1025.14 1025.32 1025.92 1026.65 1027.55 1028.29 1029.03 1028.92 1028.40 1027.13 1026.40 1026.33 1026.92 1028.34 1028.70 1028.82 1028.22 1026.45 1025.31 1025.57 1025.94 1026.13 1026.43 1026.64 1026.68 1026.19 1025.35 1020.75 1018.74 1017.87 1017.08 1016.39 1015.25 1014.57 1014.12 1014.02
1026.03 1025.90 1025.29 1025.38 1026.23 1026.65 1026.25 1025.77 1025.27 1025.19 1025.86 1026.30 1026.77 1027.06 1027.81 1029.19 1029.19 1027.92 1026.69 1025.58 1025.63 1026.69 1027.49 1028.32 1028.90 1029.26 1027.67 1026.96 1026.72 1027.04 1027.24 1027.41 1027.59 1027.24 1026.21 1025.52 1021.63 1018.51 1017.77 1016.67 1015.87 1015.30 1014.55 1014.37 1014.24
1026.09 1026.27 1025.86 1026.18 1026.49 1026.55 1026.68 1026.09 1025.80 1025.23 1025.64 1025.91 1026.21 1026.70 1027.63 1028.17 1027.97 1026.88 1026.03 1025.22 1025.41 1025.97 1026.66 1027.37 1028.82 1030.09 1030.01 1028.76 1028.87 1028.87 1027.76 1027.79 1027.92 1027.70 1025.79 1023.92 1021.38 1019.15 1018.06 1016.98 1015.76 1015.09 1014.62 1014.73 1014.38
1025.36 1025.23 1024.98 1025.60 1025.70 1025.83 1025.72 1025.60 1025.50 1025.24 1025.47 1025.59 1026.15 1026.49 1027.11 1027.55 1027.13 1026.10 1025.45 1025.41 1025.64 1025.69 1026.60 1027.91 1029.15 1029.64 1029.28 1028.78 1028.90 1028.40 1027.76 1027.09 1027.61 1026.01 1025.23 1022.43 1021.38 1019.49 1018.33 1017.26 1016.32 1015.81 1015.31 1015.12 1014.35
1024.45 1024.71 1025.31 1025.07 1024.93 1025.22 1025.10 1024.54 1024.43 1024.27 1025.04 1024.95 1025.20 1025.45 1025.90 1026.26 1025.97 1024.87 1024.61 1025.10 1025.77 1026.27 1027.25 1028.44 1028.99 1029.44 1029.24 1028.35 1028.43 1028.16 1026.38 1025.95 1025.39 1024.36 1023.40 1022.24 1020.76 1018.96 1017.84 1017.05 1016.35 1016.05 1015.71 1015.55 1014.62
1022.85 1023.18 1023.62 1023.43 1024.03 1024.32 1023.73 1022.93 1022.74 1023.33 1023.12 1023.01 1023.44 1024.80 1025.18 1024.52 1024.36 1024.50 1024.42 1024.24 1024.97 1025.87 1027.17 1028.47 1029.09 1029.89 1029.68 1028.53 1028.25 1027.25 1025.01 1024.62 1024.17 1023.35 1022.54 1021.74 1020.03 1018.78 1018.00 1017.34 1016.49 1016.26 1016.11 1015.91 1014.87
Thickness
5594 5594 5596 5597 5598 5599 5601 5602 5603 5604 5605 5605 5606 5605 5604 5601 5598 5595 5593 5592 5586 5583 5581 5577 5572 5567 5562 5556 5549 5538 5512 5502 5519 5526 5538 5531 5522 5531 5529 5520 5518 5518 5513 5519 5518
5592 5593 5594 5595 5598 5600 5602 5603 5604 5605 5605 5605 5604 5603 5600 5596 5592 5590 5588 5583 5578 5574 5569 5562 5557 5552 5544 5543 5533 5518 5491 5506 5515 5514 5521 5514 5503 5504 5505 5507 5497 5488 5490 5491 5492
5591 5593 5594 5596 5598 5599 5601 5603 5604 5604 5605 5604 5603 5601 5597 5591 5586 5583 5581 5574 5569 5565 5560 5553 5547 5542 5535 5532 5526 5513 5501 5506 5505 5494 5496 5499 5493 5482 5481 5494 5472 5465 5466 5465 5468
5591 5592 5594 5596 5598 5599 5600 5601 5603 5603 5603 5601 5599 5596 5591 5585 5592 5578 5573 5566 5561 5555 5549 5541 5533 5525 5517 5514 5511 5496 5497 5489 5487 5474 5465 5473 5470 5462 5450 5461 5450 5446 5452 5449 5450
5589 5592 5594 5596 5598 5599 5600 5600 5601 5602 5601 5598 5594 5590 5585 5580 5574 5569 5562 5556 5550 5545 5536 5528 5522 5513 5505 5498 5484 5478 5478 5470 5459 5451 5445 5459 5448 5438 5438 5433 5433 5430 5430 5431 5433
5587 5588 5589 5590 5592 5595 5597 5598 5599 5599 5598 5593 5588 5583 5577 5575 5567 5561 5554 5547 5541 5534 5523 5516 5506 5500 5487 5477 5468 5469 5455 5446 5438 5433 5424 5430 5432 5404 5420 5415 5411 5408 5406 5409 5406
5584 5585 5585 5587 5590 5592 5594 5595 5595 5594 5591 5586 5581 5575 5567 5563 5559 5552 5546 5540 5534 5525 5513 5505 5494 5484 5469 5455 5453 5448 5437 5430 5418 5412 5403 5398 5430 5384 5389 5394 5381 5374 5373 5375 5379
5580 5582 5583 5585 5587 5590 5592 5592 5591 5591 5584 5579 5573 5567 5556 5556 5550 5543 5537 5530 5522 5513 5501 5491 5481 5468 5452 5441 5431 5421 5412 5399 5409 5397 5390 5365 5391 5378 5367 5359 5360 5359 5362 5358 5367
5576 5578 5580 5581 5583 5585 5588 5590 5585 5582 5575 5571 5564 5558 5551 5548 5540 5534 5527 5517 5508 5499 5486 5477 5465 5447 5431 5410 5395 5392 5384 5383 5392 5383 5362 5344 5345 5359 5351 5339 5337 5337 5339 5346 5357
5573 5573 5574 5575 5576 5578 5581 5585 5579 5573 5566 5562 5555 5544 5539 5527 5523 5518 5513 5504 5493 5481 5470 5458 5437 5419 5399 5380 5355 5377 5366 5369 5354 5365 5351 5326 5325 5328 5332 5325 5320 5323 5324 5328 5335
5567 5566 5566 5567 5567 5569 5572 5571 5558 5559 5541 5524 5516 5516 5519 5515 5511 5506 5499 5488 5476 5464 5447 5437 5417 5402 5394 5376 5363 5353 5345 5328 5338 5337 5309 5306 5304 5315 5319 5312 5315 5323 5317 5324 5328
5560 5558 5558 5559 5558 5556 5552 5536 5521 5513 5512 5519 5515 5510 5508 5502 5492 5493 5486 5472 5462 5446 5432 5406 5401 5400 5388 5372 5355 5339 5328 5316 5328 5321 5299 5300 5294 5307 5305 5315 5325 5326 5314 5307 5306
5552 5550 5550 5551 5548 5541 5529 5519 5510 5503 5487 5507 5509 5506 5498 5490 5482 5480 5473 5457 5441 5424 5414 5379 5397 5389 5369 5355 5348 5333 5312 5307 5293 5305 5298 5279 5291 5311 5317 5317 5320 5313 5300 5296 5296
5543 5541 5540 5542 5538 5525 5516 5508 5502 5494 5467 5515 5503 5495 5487 5477 5468 5467 5454 5439 5422 5398 5395 5376 5376 5371 5354 5337 5328 5319 5316 5302 5287 5264 5257 5271 5231 5288 5313 5314 5297 5294 5296 5295 5294
5531 5531 5528 5526 5517 5512 5503 5499 5493 5483 5503 5507 5495 5484 5476 5465 5456 5446 5433 5422 5401 5397 5365 5356 5359 5353 5327 5326 5319 5303 5301 5288 5280 5259 5213 5251 5217 5273 5302 5290 5288 5284 5284 5285 5284
5522 5520 5517 5513 5507 5501 5496 5492 5483 5475 5482 5498 5483 5467 5452 5451 5438 5423 5413 5397 5387 5368 5360 5352 5352 5330 5318 5308 5296 5287 5272 5271 5220 5174 5163 5233 5218 5263 5284 5287 5285 5285 5280 5279 5278
5517 5515 5511 5506 5497 5495 5489 5479 5472 5471 5483 5459 5453 5440 5437 5420 5415 5390 5372 5349 5326 5327 5306 5328 5331 5322 5306 5281 5261 5237 5215 5224 5179 5164 5180 5263 5249 5261 5286 5280 5276 5260 5267 5268 5269
5511 5508 5504 5498 5492 5487 5481 5464 5449 5434 5431 5443 5432 5429 5411 5395 5384 5361 5325 5314 5325 5276 5248 5256 5269 5297 5292 5264 5233 5249 5218 5215 5218 5198 5230 5258 5189 5262 5279 5279 5268 5262 5260 5266 5259
5501 5498 5493 5489 5483 5476 5458 5428 5432 5436 5432 5416 5408 5381 5381 5382 5356 5332 5310 5300 5309 5271 5258 5237 5258 5296 5284 5270 5244 5238 5186 5224 5224 5120 5162 5208 5250 5287 5280 5273 5259 5262 5264 5258 5253
5488 5481 5477 5476 5468 5458 5431 5445 5430 5431 5417 5394 5367 5363 5322 5330 5319 5301 5296 5313 5287 5292 5277 5239 5251 5287 5277 5254 5243 5233 5230 5193 5181 5198 5153 5193 5215 5231 5251 5240 5258 5254 5255 5255 5250
5473 5466 5467 5460 5452 5430 5414 5398 5413 5417 5404 5369 5350 5351 5336 5318 5308 5283 5300 5312 5301 5280 5271 5206 5203 5242 5238 5199 5198 5201 5188 5202 5192 5197 5207 5161 5186 5209 5208 5204 5229 5240 5255 5247 5241
5458 5450 5454 5444 5420 5389 5393 5403 5416 5402 5395 5379 5367 5349 5329 5302 5288 5289 5303 5300 5289 5276 5238 5239 5223 5187 5220 5227 5208 5198 5183 5202 5192 5172 5149 5144 5217 5194 5197 5215 5230 5246 5251 5247 5238
5445 5434 5439 5431 5402 5401 5399 5401 5400 5391 5373 5349 5338 5347 5316 5306 5298 5288 5300 5305 5291 5260 5231 5226 5213 5203 5201 5200 5188 5162 5167 5177 5154 5158 5154 5155 5191 5211 5243 5244 5248 5247 5245 5239 5234
5430 5427 5417 5409 5400 5390 5381 5385 5374 5377 5366 5363 5352 5344 5306 5293 5293 5290 5294 5302 5289 5270 5271 5240 5177 5186 5188 5191 5142 5155 5169 5154 5146 5140 5151 5178 5212 5231 5234 5237 5247 5247 5244 5226 5219
5426 5424 5419 5405 5399 5394 5389 5377 5374 5367 5360 5352 5329 5328 5304 5301 5273 5274 5287 5283 5275 5271 5237 5214 5188 5150 5177 5198 5134 5167 5185 5180 5151 5174 5197 5203 5196 5219 5223 5230 5232 5233 5220 5217 5224
5422 5416 5402 5385 5397 5391 5387 5378 5374 5370 5348 5339 5326 5324 5311 5303 5302 5301 5288 5277 5263 5240 5218 5196 5200 5154 5190 5141 5124 5140 5187 5181 5195 5202 5197 5205 5204 5214 5209 5224 5233 5230 5218 5214 5220
5423 5415 5407 5410 5387 5377 5382 5385 5378 5365 5361 5360 5340 5312 5295 5306 5303 5296 5288 5278 5263 5247 5227 5207 5191 5166 5164 5154 5144 5181 5190 5168 5172 5171 5199 5202 5213 5207 5222 5226 5234 5225 5221 5212 5211